Regional Weather Roundup
Issued by NWS

Home | Current Version | Previous Version | Graphics & Text | Print | Product List | Glossary On
Versions: 1 2 3 4 5 6 7 8 9 10 11 12 13 14 15 16 17 18 19 20 21 22 23 24 25 26 27 28
000
ASUS45 KCYS 250910
RWRWY

WYOMING REGIONAL WEATHER ROUNDUP
NATIONAL WEATHER SERVICE CHEYENNE WY
300 AM MDT MON JUL 25 2016

NOTE:  "FAIR" INDICATES FEW OR NO CLOUDS BELOW 12,000 FEET
WITH NO SIGNIFICANT WEATHER AND/OR OBSTRUCTIONS TO VISIBILITY.

WYZ001-251000-
YELLOWSTONE NATIONAL PARK

CITY           SKY/WX    TMP DP  RH WIND       PRES   REMARKS
LK YELLOWSTONE   N/A     40  32  73 NW3       30.36F
W YELLOWSTONE  NOT AVBL

$$
WYZ002>013-054>058-071-098>099-251000-
NORTHERN WYOMING

CITY           SKY/WX    TMP DP  RH WIND       PRES   REMARKS
JACKSON        FAIR      48  36  61 CALM      30.27R
CODY           FAIR      64  34  32 SW7       30.13S
GREYBULL       FAIR      59  42  53 SE6       30.05R
WORLAND        FAIR      59  30  33 S6        30.06S
SHERIDAN       FAIR      56  45  66 CALM      30.05F
BUFFALO        FAIR      63  40  42 CALM      30.13S
GILLETTE       FAIR      67  52  58 S15       30.10S
HULETT         FAIR      72  50  46 S9        30.11S
NEWCASTLE      FAIR      68  48  49 SE12G20   30.16S

$$
WYZ014>020-022>026-101>103-251000-
CENTRAL WYOMING

CITY           SKY/WX    TMP DP  RH WIND       PRES   REMARKS
BIG PINEY      FAIR      45  26  47 E6        30.30S
PINEDALE       FAIR      41  32  70 W6        30.31S
DUBOIS         PTSUNNY   50  27  40 NW10      30.30S HAZE
LANDER         FAIR      62  33  33 SW5       30.17R
RIVERTON       FAIR      59  39  47 NW9       30.15S
CASPER         FAIR      51  45  79 CALM      30.15F
DOUGLAS          N/A    N/A N/A N/A MISG      30.15F

$$
WYZ021-027>030-104>119-251000-
SOUTHERN WYOMING

CITY           SKY/WX    TMP DP  RH WIND       PRES   REMARKS
EVANSTON       FAIR      58  23  26 SE9       30.30S
KEMMERER         N/A     52  27  37 CALM      30.31R
FORT BRIDGER   FAIR      60  16  18 S8        30.32S
ROCK SPRINGS   FAIR      61  14  16 W10       30.26S
DIXON          FAIR      56  34  44 S5        30.28S
RAWLINS        FAIR      54  41  61 CALM      30.26R
SARATOGA       FAIR      54  37  54 CALM      30.28S
LARAMIE        FAIR      55  52  89 S15       30.30S
CHEYENNE       FAIR      58  54  86 SW18      30.25F
TORRINGTON     FAIR      59  54  83 E7        30.15F
PINE BLUFFS    FAIR      54  54 100 S6        30.23S

$$




USA.gov is the U.S. government's official web portal to all federal, state and local government web resources and services.